{"data":{"norad_id":62506,"epoch":"2026-09-21T00:22:50.993472Z","epoch_age_seconds":129963,"freshness":"FRESH","line1":"1 62506U 25003V   26264.01586798  .00012233  00000+0  45320-3 0  9990","line2":"2 62506  43.0017 247.3219 0001328 253.8550 106.2156 15.27589479 96751","mean_motion":15.27589479,"eccentricity":0.0001328,"inclination_deg":43.0017,"raan_deg":247.3219,"arg_perigee_deg":253.855,"mean_anomaly_deg":106.2156,"bstar":0.0004532,"rev_number":9675,"period_min":94.266163769514,"perigee_km":482.10955090613,"apogee_km":483.93187439461,"semimajor_km":6861.1577126504,"source":"CELESTRAK","updated_at":"2026-09-22T09:00:49.620186Z"}}